Weather History for KGLE - October, 2012

Change the Weather History Date:

Monday, October 22, 2012

  Actual Average (KDTO) Record (KDTO)
Temperature  
Mean Temperature 70 °F -  
Max Temperature 75 °F 74 °F 93 °F (2003)
Min Temperature 64 °F 51 °F 37 °F (2013)
Cooling Degree Days 4    
Growing Degree Days 20 (Base 50)    
Moisture  
Dew Point 65 °F    
Average Humidity 83    
Maximum Humidity 94    
Minimum Humidity 69    
Precipitation  
Precipitation 0.02 in - - ()
Sea Level Pressure  
Sea Level Pressure 29.94 in    
Wind  
Wind Speed 12 mph (SSE)    
Max Wind Speed 21 mph    
Max Gust Speed 29 mph    
Visibility 9 miles    
Events Rain    
Averages and records for this station are not official NWS values.
T = Trace of Precipitation, MM = Missing Value Source: NWS Daily Summary

Daily Weather History Graph

Daily Weather History Graph

Search for Another Location

Airport or City:

Trip Planner

Search our weather history database for the weather conditions in past years. The results will help you decide how hot, cold, wet, or windy it might be!

Date:

Astronomy

Oct. 22, 2012 Rise Set
Actual Time 7:39 AM CDT 6:46 PM CDT
Civil Twilight 7:14 AM CDT 7:11 PM CDT
Nautical Twilight 6:45 AM CDT 7:40 PM CDT
Astronomical Twilight 6:16 AM CDT 8:09 PM CDT
Moon 2:37 PM CDT (10/22) 12:47 AM CDT (10/22)
Length of Visible Light 11h 57m
Length of Day
11h 06m
First Quarter, 56% of the Moon is Illuminated
Oct 22
First Quarter
Oct 29
Full
Nov 6
Last Quarter
Nov 13
New
Nov 20
First Quarter

Hourly Weather History & Observations

Time (CDT) Temp. Dew Point Humidity Pressure Visibility Wind Dir Wind Speed Gust Speed Precip Events Conditions
12:15 AM 75.2 °F 68.0 °F 78% 29.87 in 10.0 mi SSE 17.3 mph 20.7 mph N/A   Clear
12:35 AM 75.2 °F 68.0 °F 78% 29.87 in 10.0 mi South 15.0 mph - N/A   Clear
12:55 AM 75.2 °F 68.0 °F 78% 29.87 in 10.0 mi South 18.4 mph 23.0 mph N/A   Clear
1:15 AM 75.2 °F 68.0 °F 78% 29.87 in 10.0 mi South 16.1 mph 24.2 mph N/A   Clear
1:35 AM 71.6 °F 66.2 °F 83% 29.88 in 10.0 mi South 15.0 mph 19.6 mph N/A   Clear
1:55 AM 71.6 °F 68.0 °F 88% 29.88 in 10.0 mi South 15.0 mph - N/A   Clear
2:15 AM 71.6 °F 68.0 °F 88% 29.88 in 10.0 mi South 13.8 mph - N/A   Clear
2:35 AM 71.6 °F 68.0 °F 88% 29.88 in 10.0 mi South 15.0 mph - N/A   Clear
2:55 AM 71.6 °F 68.0 °F 88% 29.89 in 10.0 mi South 13.8 mph - N/A   Clear
3:15 AM 71.6 °F 68.0 °F 88% 29.89 in 10.0 mi South 13.8 mph - N/A   Clear
3:35 AM 69.8 °F 66.2 °F 88% 29.89 in 10.0 mi SSE 12.7 mph - N/A   Clear
3:55 AM 69.8 °F 68.0 °F 94% 29.90 in 10.0 mi SSE 11.5 mph - N/A   Clear
4:15 AM 69.8 °F 68.0 °F 94% 29.90 in 10.0 mi SSE 11.5 mph - N/A   Scattered Clouds
4:35 AM 69.8 °F 68.0 °F 94% 29.90 in 10.0 mi SSE 11.5 mph - N/A   Overcast
4:55 AM 69.8 °F 66.2 °F 88% 29.91 in 10.0 mi SSE 10.4 mph - N/A   Overcast
5:15 AM 69.8 °F 66.2 °F 88% 29.92 in 10.0 mi South 9.2 mph - N/A   Overcast
5:35 AM 69.8 °F 66.2 °F 88% 29.93 in 10.0 mi SSE 9.2 mph - N/A   Overcast
5:55 AM 69.8 °F 66.2 °F 88% 29.94 in 10.0 mi South 6.9 mph - N/A   Overcast
6:15 AM 69.8 °F 66.2 °F 88% 29.94 in 10.0 mi South 8.1 mph - N/A   Overcast
6:35 AM 69.8 °F 66.2 °F 88% 29.95 in 10.0 mi SSE 9.2 mph - N/A   Overcast
7:15 AM 69.8 °F 66.2 °F 88% 29.95 in 10.0 mi SSE 8.1 mph - N/A   Overcast
7:35 AM 69.8 °F 66.2 °F 88% 29.95 in 10.0 mi SSE 8.1 mph - N/A   Mostly Cloudy
8:15 AM 69.8 °F 68.0 °F 94% 29.96 in 10.0 mi SSE 10.4 mph - N/A   Scattered Clouds
8:35 AM 69.8 °F 68.0 °F 94% 29.98 in 10.0 mi SSE 11.5 mph - N/A   Scattered Clouds
8:55 AM 69.8 °F 68.0 °F 94% 29.98 in 10.0 mi SSE 11.5 mph - N/A   Mostly Cloudy
9:15 AM 69.8 °F 66.2 °F 88% 29.98 in 10.0 mi SSE 11.5 mph - N/A   Overcast
9:35 AM 71.6 °F 68.0 °F 88% 29.98 in 10.0 mi South 17.3 mph 24.2 mph N/A   Overcast
9:55 AM 71.6 °F 68.0 °F 88% 29.99 in 10.0 mi South 15.0 mph - N/A   Overcast
10:15 AM 71.6 °F 68.0 °F 88% 30.00 in 10.0 mi South 18.4 mph 23.0 mph N/A   Overcast
10:35 AM 75.2 °F 68.0 °F 78% 29.99 in 10.0 mi South 18.4 mph 23.0 mph N/A   Overcast
10:55 AM 75.2 °F 68.0 °F 78% 29.99 in 10.0 mi South 20.7 mph 28.8 mph N/A   Overcast
11:15 AM 75.2 °F 68.0 °F 78% 29.99 in 10.0 mi South 18.4 mph 27.6 mph N/A   Mostly Cloudy
11:35 AM 75.2 °F 64.4 °F 69% 30.02 in 10.0 mi SSW 18.4 mph 25.3 mph N/A   Overcast
11:55 AM 75.2 °F 66.2 °F 73% 30.02 in 10.0 mi SSW 12.7 mph 21.9 mph N/A   Overcast
12:15 PM 75.2 °F 66.2 °F 73% 30.02 in 10.0 mi SSW 16.1 mph 19.6 mph N/A   Overcast
12:35 PM 75.2 °F 66.2 °F 73% 30.04 in 10.0 mi West 18.4 mph 26.5 mph N/A   Overcast
12:55 PM 64.4 °F 62.6 °F 94% 30.04 in 7.0 mi West 17.3 mph 25.3 mph 0.02 in Rain Light Rain
1:15 PM 64.4 °F 62.6 °F 94% 30.02 in 10.0 mi West 12.7 mph 17.3 mph N/A   Overcast
1:35 PM 66.2 °F 62.6 °F 88% 30.01 in 10.0 mi West 10.4 mph - N/A Rain Light Rain
1:55 PM 68.0 °F 62.6 °F 83% 30.00 in 10.0 mi West 5.8 mph - N/A   Overcast
2:15 PM 69.8 °F 64.4 °F 83% 29.99 in 10.0 mi Calm Calm - N/A   Mostly Cloudy
2:35 PM 71.6 °F 62.6 °F 73% 29.97 in 10.0 mi West 4.6 mph - N/A   Mostly Cloudy
2:55 PM 71.6 °F 62.6 °F 73% 29.96 in 10.0 mi Calm Calm - N/A   Scattered Clouds
3:15 PM 71.6 °F 62.6 °F 73% 29.96 in 10.0 mi Calm Calm - N/A   Clear
3:35 PM 71.6 °F 62.6 °F 73% 29.96 in 10.0 mi Calm Calm - N/A   Scattered Clouds
3:55 PM 73.4 °F 62.6 °F 69% 29.94 in 1.0 mi ESE 8.1 mph - N/A   Haze
4:15 PM 71.6 °F 64.4 °F 78% 29.92 in 0.5 mi ESE 10.4 mph - N/A   Haze
4:35 PM 71.6 °F 64.4 °F 78% 29.89 in 1.5 mi ESE 13.8 mph 18.4 mph N/A   Haze
4:55 PM 71.6 °F 64.4 °F 78% 29.89 in 2.0 mi ESE 11.5 mph - N/A   Haze
5:15 PM 71.6 °F 62.6 °F 73% 29.89 in 1.8 mi ESE 10.4 mph - N/A   Haze
5:35 PM 71.6 °F 62.6 °F 73% 29.89 in 10.0 mi ESE 12.7 mph - N/A   Scattered Clouds
5:55 PM 71.6 °F 62.6 °F 73% 29.89 in 10.0 mi ESE 8.1 mph - N/A   Scattered Clouds
6:15 PM 71.6 °F 62.6 °F 73% 29.89 in 10.0 mi SE 6.9 mph - N/A   Clear
6:35 PM 71.6 °F 62.6 °F 73% 29.90 in 10.0 mi ESE 5.8 mph - N/A   Clear
6:55 PM 69.8 °F 60.8 °F 73% 29.92 in 10.0 mi SSW 4.6 mph - N/A   Clear
7:15 PM 69.8 °F 62.6 °F 78% 29.92 in 10.0 mi Calm Calm - N/A   Clear
7:35 PM 69.8 °F 62.6 °F 78% 29.92 in 10.0 mi Calm Calm - N/A   Clear
7:55 PM 69.8 °F 62.6 °F 78% 29.93 in 10.0 mi Calm Calm - N/A   Clear
8:15 PM 68.0 °F 60.8 °F 78% 29.93 in 10.0 mi Calm Calm - N/A   Clear
8:35 PM 64.4 °F 60.8 °F 88% 29.93 in 10.0 mi South 3.5 mph - N/A   Clear
8:55 PM 64.4 °F 60.8 °F 88% 29.93 in 10.0 mi East 3.5 mph - N/A   Clear
9:15 PM 64.4 °F 60.8 °F 88% 29.93 in 10.0 mi Calm Calm - N/A   Clear
9:35 PM 64.4 °F 62.6 °F 94% 29.93 in 10.0 mi ESE 4.6 mph - N/A   Clear
9:55 PM 64.4 °F 62.6 °F 94% 29.94 in 10.0 mi SE 3.5 mph - N/A   Scattered Clouds
10:15 PM 64.4 °F 62.6 °F 94% 29.93 in 10.0 mi SE 5.8 mph - N/A   Mostly Cloudy
10:35 PM 68.0 °F 64.4 °F 88% 29.93 in 10.0 mi SE 5.8 mph - N/A   Mostly Cloudy
10:55 PM 68.0 °F 64.4 °F 88% 29.94 in 10.0 mi SE 5.8 mph - N/A   Mostly Cloudy
11:15 PM 68.0 °F 64.4 °F 88% 29.93 in 10.0 mi SE 5.8 mph - N/A   Mostly Cloudy
11:35 PM 68.0 °F 64.4 °F 88% 29.93 in 10.0 mi SE 6.9 mph - N/A   Overcast
11:55 PM 68.0 °F 64.4 °F 88% 29.92 in 10.0 mi SE 8.1 mph - N/A   Overcast